YACHTS Weather Reports


Display with metric or nautical units.
time (UTC)temp
F
wind
direction
speed
MPH
gust
MPH
rain 1hr
in
rain 24hr
in
rain mn
in
humidity
%
barometer
mb
20260902051128 59 210 0.0 10.0 0.00 0.02 0.02 87 1011.5
20260902050615 59 193 3.0 7.0 0.00 0.02 0.02 87 1011.4
20260902045549 60 0 0.0 14.0 0.00 0.02 0.02 87 1011.5
20260902045036 60 238 4.0 14.0 0.00 0.02 0.02 87 1011.6
20260902044523 59 0 0.0 10.0 0.00 0.02 0.02 87 1011.7
20260902044010 59 205 7.0 13.0 0.00 0.02 0.02 87 1011.7
20260902043456 60 235 1.0 13.0 0.00 0.02 0.02 87 1011.8
20260902042943 60 239 2.0 13.0 0.00 0.02 0.02 87 1011.7
20260902042430 60 169 1.0 11.0 0.00 0.02 0.02 87 1011.7
20260902041917 59 179 2.0 11.0 0.00 0.02 0.02 88 1011.7
20260902041404 59 232 3.0 9.0 0.00 0.02 0.02 88 1011.7
20260902040851 59 149 1.0 9.0 0.00 0.02 0.02 88 1011.6
20260902035312 59 198 3.0 15.0 0.00 0.02 0.02 89 1011.6
20260902034759 58 163 3.0 11.0 0.00 0.02 0.02 89 1011.7
20260902034246 59 112 3.0 11.0 0.00 0.02 0.02 89 1011.6
20260902033733 59 159 1.0 15.0 0.00 0.02 0.02 89 1011.7
20260902033221 59 263 3.0 15.0 0.00 0.02 0.02 89 1011.6
20260902032707 59 221 6.0 15.0 0.00 0.02 0.02 89 1011.7
20260902032154 59 239 0.0 14.0 0.00 0.02 0.02 89 1011.6
20260902031641 59 239 1.0 18.0 0.00 0.02 0.02 89 1011.6
20260902031128 59 296 8.0 18.0 0.00 0.02 0.02 89 1011.6
20260902030615 58 273 0.0 18.0 0.00 0.02 0.02 89 1011.6
20260902025549 59 221 7.0 16.0 0.00 0.02 0.02 89 1011.6
20260902024524 59 317 5.0 16.0 0.00 0.02 0.02 89 1011.7
20260902024010 59 134 7.0 16.0 0.00 0.02 0.02 89 1011.7
20260902023457 59 183 3.0 14.0 0.00 0.02 0.02 89 1011.7
20260902022945 59 282 0.0 14.0 0.00 0.02 0.02 89 1011.7
20260902022432 59 173 4.0 14.0 0.00 0.02 0.02 89 1011.7
20260902021919 59 253 3.0 12.0 0.00 0.02 0.02 88 1011.6
20260902021406 60 107 0.0 12.0 0.00 0.02 0.02 88 1011.6
20260902020853 60 267 5.0 12.0 0.00 0.02 0.02 88 1011.7
20260902020340 61 180 2.0 11.0 0.00 0.02 0.02 88 1011.6
20260902015314 61 274 0.0 5.0 0.00 0.02 0.02 88 1011.4
20260902014801 61 170 0.0 15.0 0.00 0.02 0.02 88 1011.3
20260902014248 61 280 0.0 15.0 0.00 0.02 0.02 88 1011.3
20260902013737 62 273 3.0 15.0 0.00 0.02 0.02 88 1011.2
20260902013222 62 190 2.0 9.0 0.00 0.02 0.02 88 1011.3
20260902012709 62 190 0.0 13.0 0.00 0.02 0.02 89 1011.2
20260902011643 61 225 5.0 13.0 0.00 0.02 0.02 89 1011.3
20260902011130 61 274 5.0 8.0 0.00 0.02 0.02 89 1011.4
20260902010617 61 298 5.0 12.0 0.00 0.02 0.02 89 1011.4
20260902005551 60 348 1.0 12.0 0.00 0.02 0.02 89 1011.4
20260902005038 61 0 0.0 15.0 0.00 0.02 0.02 89 1011.4
20260902004525 60 296 2.0 15.0 0.00 0.02 0.02 89 1011.4
20260902004012 61 259 5.0 15.0 0.00 0.02 0.02 89 1011.4
20260902003459 61 0 3.0 12.0 0.00 0.02 0.02 89 1011.4
20260902002946 61 252 3.0 11.0 0.00 0.02 0.02 89 1011.5
20260902001920 60 285 0.0 11.0 0.00 0.02 0.02 89 1011.5
20260902001407 61 256 6.0 11.0 0.00 0.02 0.02 89 1011.6
20260902000854 61 233 0.0 11.0 0.00 0.02 0.02 89 1011.5
20260902000341 61 260 1.0 11.0 0.00 0.02 0.02 89 1011.6
20260901235315 60 306 3.0 8.0 0.00 0.02 0.02 89 1011.8
20260901234802 60 267 1.0 6.0 0.00 0.02 0.02 89 1011.8
20260901234249 60 280 4.0 11.0 0.00 0.02 0.02 88 1011.8
20260901233223 61 253 2.0 11.0 0.00 0.02 0.02 89 1011.9
20260901232710 61 271 0.0 10.0 0.00 0.02 0.02 89 1012.0
20260901232157 60 261 0.0 10.0 0.00 0.02 0.02 89 1011.9
20260901231644 60 250 3.0 9.0 0.00 0.02 0.02 88 1012.0
20260901231130 60 0 0.0 13.0 0.00 0.02 0.02 89 1012.0
20260901230618 60 134 2.0 13.0 0.00 0.02 0.02 88 1012.1
20260901230106 61 232 2.0 13.0 0.00 0.02 0.02 88 1012.1
20260901225552 60 196 0.0 10.0 0.00 0.02 0.02 88 1012.1
20260901225038 61 0 0.0 10.0 0.00 0.02 0.02 89 1012.2
20260901224525 61 0 3.0 12.0 0.00 0.02 0.02 88 1012.2
20260901224012 61 301 0.0 12.0 0.00 0.02 0.02 88 1012.2
20260901223459 61 0 1.0 12.0 0.00 0.02 0.02 88 1012.1
20260901222947 61 222 3.0 11.0 0.00 0.02 0.02 88 1012.1
20260901222433 61 273 2.0 11.0 0.00 0.02 0.02 87 1012.1
20260901221920 62 250 3.0 8.0 0.00 0.02 0.02 87 1012.2
20260901221408 62 294 5.0 12.0 0.00 0.02 0.02 87 1012.1
20260901220854 62 249 4.0 12.0 0.00 0.02 0.02 87 1012.1
20260901215828 62 177 4.0 11.0 0.00 0.02 0.02 87 1012.1
20260901214802 62 322 0.0 11.0 0.00 0.02 0.02 88 1012.0
20260901214249 62 217 6.0 11.0 0.00 0.02 0.02 87 1012.0
20260901213736 62 260 2.0 11.0 0.00 0.02 0.02 88 1012.0
20260901213223 62 242 0.0 13.0 0.00 0.02 0.02 88 1011.9
20260901212710 62 263 5.0 13.0 0.00 0.02 0.02 88 1011.9
20260901212157 62 250 6.0 13.0 0.00 0.02 0.02 88 1011.9
20260901211644 62 309 4.0 12.0 0.00 0.02 0.02 88 1011.8
20260901211131 63 190 3.0 12.0 0.00 0.02 0.02 88 1011.9
20260901210618 62 266 1.0 11.0 0.00 0.02 0.02 88 1011.9
20260901210105 62 257 4.0 11.0 0.00 0.02 0.02 88 1011.9
20260901205039 62 256 4.0 7.0 0.00 0.02 0.02 88 1011.8
20260901204526 62 0 0.0 7.0 0.00 0.02 0.02 89 1011.8
20260901204013 62 266 6.0 11.0 0.00 0.02 0.02 88 1011.9
20260901203500 61 253 1.0 11.0 0.00 0.02 0.02 89 1012.0
20260901202947 61 208 2.0 11.0 0.00 0.02 0.02 89 1012.0
20260901202434 61 270 0.0 10.0 0.00 0.02 0.02 89 1012.0
20260901201921 60 271 4.0 11.0 0.00 0.02 0.02 89 1012.0
20260901201408 61 263 6.0 11.0 0.00 0.02 0.02 89 1012.0
20260901200855 62 268 1.0 11.0 0.00 0.02 0.02 89 1011.9
20260901200342 61 254 3.0 11.0 0.00 0.02 0.02 90 1012.0
20260901195830 61 282 5.0 11.0 0.00 0.02 0.02 90 1011.9
20260901195316 60 268 4.0 11.0 0.00 0.02 0.02 91 1011.9
20260901194804 59 159 2.0 11.0 0.01 0.02 0.02 91 1012.0
20260901194250 60 190 1.0 11.0 0.01 0.02 0.02 91 1012.0
20260901193737 60 246 0.0 11.0 0.01 0.02 0.02 91 1012.1
20260901192711 60 247 1.0 8.0 0.01 0.02 0.02 91 1012.1
20260901192158 59 246 3.0 5.0 0.01 0.02 0.02 91 1012.2
20260901191645 59 0 0.0 10.0 0.01 0.02 0.02 91 1012.2
20260901190619 59 281 4.0 8.0 0.01 0.02 0.02 92 1012.2
20260901190106 59 285 2.0 6.0 0.01 0.02 0.02 91 1012.2
20260901185040 59 246 7.0 11.0 0.01 0.02 0.02 92 1012.3
20260901184527 59 273 5.0 11.0 0.00 0.02 0.02 92 1012.2
20260901184014 58 0 3.0 9.0 0.00 0.01 0.01 92 1012.3
20260901183501 58 0 1.0 9.0 0.00 0.01 0.01 92 1012.3
20260901182949 58 249 2.0 9.0 0.00 0.01 0.01 92 1012.3
20260901182435 59 250 1.0 9.0 0.00 0.01 0.01 92 1012.3
20260901181922 59 229 4.0 7.0 0.00 0.01 0.01 92 1012.3
20260901181409 59 275 4.0 8.0 0.00 0.01 0.01 92 1012.2
20260901180856 60 259 0.0 8.0 0.00 0.01 0.01 92 1012.2
20260901180343 60 299 5.0 8.0 0.00 0.01 0.01 92 1012.2
20260901175830 60 284 4.0 8.0 0.00 0.01 0.01 92 1012.1
20260901175317 60 291 3.0 8.0 0.00 0.01 0.01 92 1012.1
20260901174804 59 291 4.0 8.0 0.00 0.01 0.01 92 1012.1
20260901174251 60 240 0.0 8.0 0.00 0.01 0.01 93 1012.2
20260901173738 59 263 1.0 7.0 0.00 0.01 0.01 93 1012.2
20260901173225 59 263 0.0 5.0 0.00 0.01 0.01 93 1012.2
20260901172712 59 317 1.0 5.0 0.00 0.01 0.01 93 1012.3
20260901172159 60 257 1.0 5.0 0.00 0.01 0.01 93 1012.2
20260901171646 59 0 0.0 3.0 0.00 0.01 0.01 93 1012.2
20260901171133 59 0 0.0 0.0 0.00 0.01 0.01 93 1012.2
20260901170620 58 0 0.0 0.0 0.00 0.01 0.01 93 1012.2
20260901170107 58 0 0.0 0.0 0.00 0.01 0.01 94 1012.3
20260901165555 57 0 0.0 0.0 0.00 0.01 0.01 94 1012.2
20260901165041 57 0 0.0 0.0 0.00 0.01 0.01 94 1012.2
20260901164528 57 0 0.0 0.0 0.00 0.01 0.01 94 1012.2
20260901164015 57 0 0.0 0.0 0.00 0.01 0.01 94 1012.2
20260901163502 57 0 0.0 4.0 0.00 0.01 0.01 94 1012.3
20260901162949 57 0 0.0 4.0 0.00 0.01 0.01 94 1012.3
20260901162436 57 231 0.0 4.0 0.00 0.01 0.01 94 1012.3
20260901161923 57 0 0.0 0.0 0.00 0.01 0.01 94 1012.3
20260901161410 57 0 0.0 0.0 0.00 0.01 0.01 94 1012.3
20260901160857 57 0 0.0 0.0 0.00 0.01 0.01 94 1012.4
20260901160344 57 0 0.0 0.0 0.00 0.01 0.01 94 1012.3
20260901155831 57 0 0.0 0.0 0.00 0.01 0.01 94 1012.3
20260901155317 56 0 0.0 4.0 0.00 0.01 0.01 94 1012.3
20260901154805 57 0 0.0 4.0 0.00 0.01 0.01 94 1012.4
20260901154252 56 254 0.0 4.0 0.00 0.01 0.01 94 1012.4
20260901153225 56 189 0.0 3.0 0.00 0.01 0.01 94 1012.3
20260901152712 56 0 0.0 0.0 0.00 0.01 0.01 94 1012.3
20260901151646 56 0 0.0 0.0 0.00 0.01 0.01 94 1012.4
20260901151133 56 0 0.0 0.0 0.00 0.01 0.01 94 1012.3
20260901150620 55 0 0.0 0.0 0.00 0.01 0.01 94 1012.3
20260901150107 56 0 0.0 0.0 0.00 0.01 0.01 94 1012.3
20260901145554 56 0 0.0 0.0 0.00 0.01 0.01 94 1012.3
20260901145041 56 0 0.0 0.0 0.00 0.01 0.01 94 1012.3
20260901144015 56 0 0.0 0.0 0.00 0.01 0.01 94 1012.2
20260901143502 56 0 0.0 0.0 0.00 0.01 0.01 94 1012.1
20260901142950 56 0 0.0 0.0 0.00 0.01 0.01 94 1012.1
20260901142436 56 0 0.0 0.0 0.00 0.01 0.01 94 1012.1
20260901141923 56 0 0.0 0.0 0.00 0.01 0.01 94 1012.0
20260901141410 55 0 0.0 0.0 0.00 0.01 0.01 94 1012.0
20260901140857 55 0 0.0 0.0 0.00 0.01 0.01 94 1012.0
20260901140344 56 0 0.0 0.0 0.00 0.01 0.01 94 1012.0
20260901135318 56 0 0.0 0.0 0.00 0.01 0.01 94 1011.9
20260901134805 55 0 0.0 0.0 0.00 0.01 0.01 94 1011.8
20260901134252 55 0 0.0 0.0 0.00 0.01 0.01 94 1011.7
20260901133739 56 0 0.0 0.0 0.00 0.01 0.01 94 1011.7
20260901132713 55 0 0.0 0.0 0.00 0.01 0.01 94 1011.6
20260901132200 55 0 0.0 0.0 0.00 0.01 0.01 94 1011.6
20260901131647 56 189 0.0 5.0 0.00 0.01 0.01 94 1011.6
20260901131134 56 0 0.0 5.0 0.00 0.01 0.01 94 1011.5
20260901130621 55 211 0.0 5.0 0.00 0.01 0.01 94 1011.6
20260901130108 55 0 0.0 0.0 0.00 0.01 0.01 94 1011.5
20260901125042 55 0 0.0 0.0 0.00 0.01 0.01 94 1011.6
20260901124529 57 0 0.0 0.0 0.00 0.01 0.01 94 1011.5
20260901124016 56 0 0.0 3.0 0.00 0.01 0.01 94 1011.5
20260901123503 55 0 0.0 3.0 0.00 0.01 0.01 94 1011.5
20260901122950 56 0 0.0 3.0 0.00 0.01 0.01 94 1011.5
20260901122437 56 0 0.0 0.0 0.00 0.01 0.01 94 1011.5
20260901121924 56 238 0.0 5.0 0.01 0.01 0.01 94 1011.5
20260901121411 57 238 0.0 5.0 0.01 0.01 0.01 94 1011.6
20260901120858 56 205 0.0 5.0 0.01 0.01 0.01 94 1011.6
20260901120345 56 0 0.0 0.0 0.01 0.01 0.01 94 1011.5
20260901115832 55 0 0.0 0.0 0.01 0.01 0.01 93 1011.5
20260901115319 56 0 0.0 0.0 0.01 0.01 0.01 93 1011.5
20260901114806 57 158 2.0 10.0 0.01 0.01 0.01 93 1011.5
20260901114253 56 0 0.0 10.0 0.01 0.01 0.01 93 1011.5
20260901113228 56 0 0.0 8.0 0.01 0.01 0.01 93 1011.5
20260901112714 56 254 0.0 8.0 0.01 0.01 0.01 93 1011.6
20260901112201 56 0 0.0 8.0 0.01 0.01 0.01 93 1011.6
20260901111648 57 0 0.0 4.0 0.00 0.00 0.00 93 1011.6
20260901111135 57 0 0.0 0.0 0.00 0.00 0.00 93 1011.5
20260901110622 56 0 0.0 6.0 0.00 0.00 0.00 93 1011.5
20260901110109 57 0 0.0 6.0 0.00 0.00 0.00 93 1011.5
20260901105557 57 177 1.0 6.0 0.00 0.00 0.00 93 1011.6
20260901105043 57 0 0.0 5.0 0.00 0.00 0.00 93 1011.5
20260901104017 56 0 0.0 5.0 0.00 0.00 0.00 93 1011.6
20260901103504 57 0 0.0 4.0 0.00 0.00 0.00 93 1011.6
20260901102951 57 0 0.0 0.0 0.00 0.00 0.00 93 1011.6
20260901102438 56 0 0.0 8.0 0.00 0.00 0.00 93 1011.5
20260901101925 57 0 0.0 8.0 0.00 0.00 0.00 93 1011.5
20260901101412 57 319 0.0 8.0 0.00 0.00 0.00 93 1011.5
20260901100859 56 176 0.0 6.0 0.00 0.00 0.00 92 1011.5
20260901100346 56 161 2.0 6.0 0.00 0.00 0.00 92 1011.4
20260901095834 56 228 0.0 3.0 0.00 0.00 0.00 92 1011.5
20260901095320 57 0 0.0 8.0 0.00 0.00 0.00 92 1011.5
20260901094807 57 0 0.0 8.0 0.00 0.00 0.00 92 1011.5
20260901094254 58 232 0.0 8.0 0.00 0.00 0.00 92 1011.5
20260901093742 57 215 1.0 7.0 0.00 0.00 0.00 92 1011.6
20260901092202 57 152 0.0 8.0 0.00 0.00 0.00 92 1011.5
20260901091649 57 254 0.0 8.0 0.00 0.00 0.00 92 1011.6
20260901091136 57 176 2.0 7.0 0.00 0.00 0.00 92 1011.5
20260901090110 56 0 0.0 7.0 0.00 0.00 0.00 92 1011.5
20260901085557 57 305 1.0 6.0 0.00 0.00 0.00 92 1011.4
20260901085044 56 235 0.0 9.0 0.00 0.00 0.00 92 1011.4
20260901084531 57 0 0.0 9.0 0.00 0.00 0.00 92 1011.4
20260901084018 57 281 0.0 9.0 0.00 0.00 0.00 92 1011.5
20260901083505 57 249 1.0 7.0 0.00 0.00 0.00 92 1011.5
20260901082952 57 0 1.0 7.0 0.00 0.00 0.00 92 1011.5
20260901082439 57 0 0.0 7.0 0.00 0.00 0.00 92 1011.6
20260901081926 57 246 0.0 6.0 0.00 0.00 0.00 92 1011.5
20260901081413 57 243 0.0 7.0 0.00 0.00 0.00 92 1011.5
20260901080900 57 0 0.0 7.0 0.00 0.00 0.00 92 1011.4
20260901080347 58 245 3.0 7.0 0.00 0.00 0.00 92 1011.4
20260901075835 57 274 0.0 2.0 0.00 0.00 0.00 92 1011.3
20260901075321 57 0 0.0 0.0 0.00 0.00 0.00 92 1011.3
20260901074808 57 0 0.0 6.0 0.00 0.00 0.00 92 1011.2
20260901074255 57 274 0.0 6.0 0.00 0.00 0.00 92 1011.2
20260901073742 57 0 0.0 6.0 0.00 0.00 0.00 92 1011.2
20260901072716 58 0 0.0 3.0 0.00 0.00 0.00 92 1011.3
20260901072203 57 0 0.0 3.0 0.00 0.00 0.00 92 1011.2
20260901071650 57 0 0.0 3.0 0.00 0.00 0.00 92 1011.3
20260901071137 57 0 0.0 3.0 0.00 0.00 0.00 92 1011.3
20260901070624 58 0 0.0 3.0 0.00 0.00 0.00 92 1011.2
20260901070111 57 0 0.0 0.0 0.00 0.00 0.00 92 1011.2
20260901065558 57 0 0.0 0.0 0.00 0.00 0.00 92 1011.3
20260901065045 57 0 0.0 0.0 0.00 0.00 0.00 92 1011.2
20260901064532 57 0 0.0 0.0 0.00 0.00 0.00 92 1011.2
20260901064019 58 0 0.0 0.0 0.00 0.00 0.00 92 1011.3
20260901063506 57 0 0.0 4.0 0.00 0.00 0.00 92 1011.3
20260901062953 58 0 0.0 4.0 0.00 0.00 0.00 92 1011.2
20260901062440 57 0 0.0 4.0 0.00 0.00 0.00 92 1011.3
20260901061927 57 268 0.0 1.0 0.00 0.00 0.00 92 1011.3
20260901061414 57 0 0.0 0.0 0.00 0.00 0.00 92 1011.3
20260901060901 57 0 0.0 0.0 0.00 0.00 0.00 92 1011.4
20260901060348 57 0 0.0 5.0 0.00 0.00 0.00 92 1011.4
20260901055835 57 0 0.0 5.0 0.00 0.00 0.00 92 1011.4
20260901055322 57 302 0.0 5.0 0.00 0.00 0.00 92 1011.5
20260901054809 57 0 0.0 3.0 0.00 0.00 0.00 92 1011.6
20260901054256 57 0 0.0 3.0 0.00 0.00 0.00 92 1011.6
20260901053743 57 280 0.0 3.0 0.00 0.00 0.00 92 1011.6
20260901053230 57 0 0.0 0.0 0.00 0.00 0.00 92 1011.6
20260901052717 57 0 0.0 0.0 0.00 0.00 0.00 92 1011.7
20260901052204 57 0 0.0 0.0 0.00 0.00 0.00 92 1011.7
20260901051651 57 0 0.0 0.0 0.00 0.00 0.00 92 1011.6